Location: Newark
(40.3500°N, 15.2333°E)
Time: 12:30:50
(UTC+00:00)

ISS - Visible Passes

Search period start: 16 December 2019 00:00
Search period end: 26 December 2019 00:00
Orbit: 411 x 421 km, 51.6° (Epoch: 16 December)

Date Brightness Start Highest point End Pass type
(mag) Time Alt. Az. Time Alt. Az. Time Alt. Az.
19 Dec -0.1 05:21:20 10° SSE 05:22:27 11° SE 05:23:34 10° ESE visible
21 Dec -1.8 05:18:47 10° SSW 05:21:46 32° SE 05:24:46 10° ENE visible
22 Dec -0.9 04:30:59 10° S 04:33:22 18° SE 04:35:44 10° E visible
23 Dec -0.4 03:44:29 10° SE 03:45:01 10° SE 03:45:32 10° ESE visible
23 Dec -3.9 05:17:57 10° SW 05:21:15 83° NW 05:24:35 10° NE visible
24 Dec -3.1 04:31:35 34° SSW 04:32:42 54° SE 04:35:58 10° ENE visible
25 Dec -1.0 03:45:56 18° E 03:45:56 18° E 03:47:09 10° ENE visible
25 Dec -3.0 05:18:53 17° W 05:20:54 33° NNW 05:23:57 10° NE visible
